| time (UTC) | temp C | wind direction | speed KPH | gust KPH | rain 1hr cm | rain 24hr cm | rain mn cm | humidity % | barometer mb |
| 20260510143737 | 12 | 34 | 9.7 | 14.5 | 0.03 | 0.00 | 0.23 | 75 | 1022.0 |
| 20260510143237 | 12 | 43 | 9.7 | 12.9 | 0.13 | 0.00 | 0.23 | 75 | 1022.0 |
| 20260510142737 | 12 | 47 | 8.0 | 11.3 | 0.08 | 0.00 | 0.20 | 76 | 1022.0 |
| 20260510142237 | 12 | 41 | 8.0 | 14.5 | 0.00 | 0.00 | 0.20 | 76 | 1022.0 |
| 20260510141737 | 12 | 48 | 9.7 | 12.9 | 0.00 | 0.00 | 0.20 | 76 | 1022.0 |
| 20260510141237 | 12 | 49 | 9.7 | 14.5 | 0.00 | 0.00 | 0.20 | 74 | 1022.0 |
| 20260510140737 | 12 | 48 | 11.3 | 16.1 | 0.00 | 0.00 | 0.20 | 73 | 1022.0 |
| 20260510140237 | 12 | 46 | 11.3 | 16.1 | 0.00 | 0.00 | 0.20 | 72 | 1022.0 |
| 20260510135739 | 12 | 47 | 14.5 | 17.7 | 0.00 | 0.00 | 0.23 | 72 | 1022.0 |
| 20260510135239 | 13 | 46 | 14.5 | 24.1 | 0.00 | 0.00 | 0.23 | 71 | 1022.0 |
| 20260510134737 | 13 | 47 | 11.3 | 17.7 | 0.00 | 0.00 | 0.23 | 73 | 1022.0 |
| 20260510134237 | 13 | 45 | 12.9 | 27.4 | 0.00 | 0.00 | 0.23 | 72 | 1022.0 |
| 20260510133738 | 13 | 46 | 14.5 | 20.9 | 0.00 | 0.00 | 0.20 | 76 | 1022.0 |
| 20260510133237 | 13 | 46 | 9.7 | 14.5 | 0.00 | 0.00 | 0.20 | 77 | 1022.0 |
| 20260510132737 | 13 | 39 | 9.7 | 11.3 | 0.03 | 0.00 | 0.20 | 79 | 1022.0 |
| 20260510132238 | 13 | 40 | 8.0 | 11.3 | 0.18 | 0.00 | 0.20 | 78 | 1022.0 |
| 20260510131737 | 13 | 37 | 6.4 | 8.0 | 0.15 | 0.00 | 0.18 | 79 | 1022.0 |
| 20260510131237 | 13 | 35 | 4.8 | 9.7 | 0.48 | 0.00 | 0.18 | 80 | 1022.0 |
| 20260510130737 | 13 | 45 | 6.4 | 8.0 | 0.10 | 0.00 | 0.15 | 77 | 1022.0 |
| 20260510130237 | 13 | 35 | 4.8 | 6.4 | 0.30 | 0.00 | 0.15 | 77 | 1022.0 |
| 20260510125738 | 13 | 27 | 4.8 | 8.0 | 0.56 | 0.00 | 0.13 | 74 | 1022.0 |
| 20260510125237 | 13 | 52 | 9.7 | 11.3 | 0.30 | 0.00 | 0.10 | 71 | 1021.0 |
| 20260510124737 | 14 | 62 | 4.8 | 16.1 | 0.30 | 0.00 | 0.08 | 68 | 1021.0 |
| 20260510124239 | 15 | 65 | 12.9 | 20.9 | 0.23 | 0.00 | 0.05 | 65 | 1021.0 |
| 20260510123737 | 15 | 50 | 9.7 | 22.5 | 0.18 | 0.00 | 0.03 | 65 | 1021.0 |
| 20260510123237 | 15 | 32 | 9.7 | 29.0 | 0.10 | 0.00 | 0.03 | 61 | 1021.0 |
| 20260510122738 | 15 | 45 | 9.7 | 12.9 | 0.05 | 0.00 | 0.00 | 60 | 1020.0 |
| 20260510122237 | 15 | 47 | 9.7 | 12.9 | 0.00 | 0.00 | 0.00 | 61 | 1020.0 |
| 20260510121737 | 15 | 48 | 12.9 | 19.3 | 0.00 | 0.00 | 0.00 | 60 | 1019.0 |
| 20260510121238 | 15 | 45 | 14.5 | 22.5 | 0.00 | 0.00 | 0.00 | 60 | 1019.0 |
| 20260510120737 | 15 | 42 | 16.1 | 35.4 | 0.00 | 0.00 | 0.00 | 59 | 1019.0 |
| 20260510120238 | 15 | 42 | 16.1 | 22.5 | 0.00 | 0.00 | 0.00 | 60 | 1019.0 |
| 20260510115738 | 15 | 42 | 24.1 | 33.8 | 0.00 | 0.00 | 0.00 | 61 | 1018.0 |
| 20260510115237 | 15 | 42 | 20.9 | 30.6 | 0.00 | 0.00 | 0.00 | 62 | 1018.0 |
| 20260510114737 | 15 | 41 | 19.3 | 32.2 | 0.00 | 0.00 | 0.00 | 62 | 1018.0 |
| 20260510114238 | 15 | 40 | 17.7 | 29.0 | 0.00 | 0.00 | 0.00 | 62 | 1018.0 |
| 20260510113737 | 15 | 49 | 14.5 | 30.6 | 0.00 | 0.00 | 0.00 | 62 | 1017.0 |
| 20260510113237 | 15 | 40 | 16.1 | 37.0 | 0.00 | 0.00 | 0.00 | 63 | 1017.0 |
| 20260510112738 | 15 | 36 | 17.7 | 20.9 | 0.00 | 0.00 | 0.00 | 64 | 1017.0 |
| 20260510112237 | 15 | 41 | 14.5 | 22.5 | 0.00 | 0.00 | 0.00 | 65 | 1017.0 |
| 20260510111238 | 15 | 40 | 14.5 | 22.5 | 0.00 | 0.00 | 0.00 | 66 | 1017.0 |
| 20260510110737 | 15 | 41 | 17.7 | 29.0 | 0.00 | 0.00 | 0.00 | 66 | 1017.0 |
| 20260510110237 | 15 | 33 | 11.3 | 16.1 | 0.00 | 0.00 | 0.00 | 66 | 1017.0 |
| 20260510105737 | 15 | 30 | 16.1 | 27.4 | 0.00 | 0.00 | 0.00 | 66 | 1017.0 |
| 20260510105237 | 15 | 27 | 12.9 | 16.1 | 0.00 | 0.00 | 0.00 | 65 | 1017.0 |
| 20260510104737 | 15 | 39 | 8.0 | 12.9 | 0.00 | 0.00 | 0.00 | 65 | 1017.0 |
| 20260510104237 | 15 | 41 | 11.3 | 19.3 | 0.00 | 0.00 | 0.00 | 64 | 1017.0 |
| 20260510103737 | 15 | 38 | 16.1 | 20.9 | 0.00 | 0.00 | 0.00 | 64 | 1017.0 |
| 20260510103238 | 16 | 41 | 14.5 | 16.1 | 0.00 | 0.00 | 0.00 | 64 | 1016.0 |
| 20260510102738 | 16 | 39 | 14.5 | 17.7 | 0.00 | 0.00 | 0.00 | 64 | 1016.0 |
| 20260510102237 | 16 | 37 | 12.9 | 16.1 | 0.00 | 0.00 | 0.00 | 64 | 1016.0 |
| 20260510101737 | 16 | 40 | 11.3 | 14.5 | 0.00 | 0.00 | 0.00 | 63 | 1016.0 |
| 20260510101237 | 16 | 35 | 11.3 | 17.7 | 0.00 | 0.00 | 0.00 | 62 | 1016.0 |
| 20260510100737 | 16 | 36 | 14.5 | 17.7 | 0.00 | 0.00 | 0.00 | 61 | 1016.0 |
| 20260510100237 | 16 | 35 | 12.9 | 16.1 | 0.00 | 0.00 | 0.00 | 61 | 1016.0 |
| 20260510095737 | 16 | 40 | 9.7 | 14.5 | 0.00 | 0.00 | 0.00 | 62 | 1016.0 |
| 20260510095237 | 16 | 34 | 11.3 | 14.5 | 0.00 | 0.00 | 0.00 | 62 | 1016.0 |
| 20260510094737 | 16 | 42 | 11.3 | 14.5 | 0.00 | 0.00 | 0.00 | 62 | 1016.0 |
| 20260510094237 | 16 | 39 | 11.3 | 16.1 | 0.00 | 0.00 | 0.00 | 62 | 1016.0 |
| 20260510093738 | 16 | 42 | 11.3 | 14.5 | 0.00 | 0.00 | 0.00 | 62 | 1016.0 |
| 20260510093237 | 16 | 34 | 9.7 | 12.9 | 0.00 | 0.00 | 0.00 | 62 | 1016.0 |
| 20260510092737 | 16 | 41 | 11.3 | 14.5 | 0.00 | 0.00 | 0.00 | 62 | 1015.0 |
| 20260510092237 | 16 | 38 | 11.3 | 17.7 | 0.00 | 0.00 | 0.00 | 61 | 1015.0 |
| 20260510091737 | 16 | 36 | 12.9 | 17.7 | 0.00 | 0.00 | 0.00 | 61 | 1015.0 |
| 20260510091237 | 16 | 44 | 12.9 | 16.1 | 0.00 | 0.00 | 0.00 | 61 | 1015.0 |
| 20260510090737 | 16 | 42 | 12.9 | 14.5 | 0.00 | 0.00 | 0.00 | 61 | 1015.0 |
| 20260510090238 | 16 | 40 | 12.9 | 16.1 | 0.00 | 0.00 | 0.00 | 62 | 1015.0 |
| 20260510085738 | 16 | 36 | 14.5 | 19.3 | 0.00 | 0.00 | 0.00 | 61 | 1015.0 |
| 20260510085238 | 16 | 41 | 14.5 | 17.7 | 0.00 | 0.00 | 0.00 | 62 | 1015.0 |
| 20260510084737 | 16 | 40 | 12.9 | 14.5 | 0.00 | 0.00 | 0.00 | 62 | 1015.0 |
| 20260510084237 | 16 | 38 | 11.3 | 14.5 | 0.00 | 0.00 | 0.00 | 62 | 1015.0 |
| 20260510083737 | 16 | 39 | 11.3 | 16.1 | 0.00 | 0.00 | 0.00 | 62 | 1015.0 |
| 20260510083237 | 16 | 39 | 9.7 | 12.9 | 0.00 | 0.00 | 0.00 | 63 | 1015.0 |
| 20260510082738 | 17 | 43 | 9.7 | 14.5 | 0.00 | 0.00 | 0.00 | 62 | 1015.0 |
| 20260510082237 | 17 | 40 | 9.7 | 14.5 | 0.00 | 0.00 | 0.00 | 63 | 1015.0 |
| 20260510081737 | 17 | 44 | 11.3 | 16.1 | 0.00 | 0.00 | 0.00 | 63 | 1015.0 |
| 20260510081238 | 17 | 38 | 9.7 | 12.9 | 0.00 | 0.00 | 0.00 | 63 | 1015.0 |
| 20260510080737 | 17 | 42 | 11.3 | 17.7 | 0.00 | 0.00 | 0.00 | 63 | 1015.0 |
| 20260510080237 | 17 | 49 | 9.7 | 11.3 | 0.00 | 0.00 | 0.00 | 64 | 1015.0 |
| 20260510075738 | 17 | 43 | 9.7 | 17.7 | 0.00 | 0.00 | 0.00 | 64 | 1015.0 |
| 20260510075237 | 17 | 39 | 8.0 | 11.3 | 0.00 | 0.00 | 0.00 | 64 | 1015.0 |
| 20260510074737 | 17 | 37 | 11.3 | 19.3 | 0.00 | 0.00 | 0.00 | 64 | 1015.0 |
| 20260510074242 | 17 | 40 | 9.7 | 14.5 | 0.00 | 0.00 | 0.00 | 64 | 1015.0 |
| 20260510073738 | 17 | 41 | 8.0 | 16.1 | 0.00 | 0.00 | 0.00 | 64 | 1015.0 |
| 20260510073237 | 17 | 43 | 9.7 | 14.5 | 0.00 | 0.00 | 0.00 | 64 | 1014.0 |
| 20260510072737 | 17 | 47 | 9.7 | 17.7 | 0.00 | 0.00 | 0.00 | 64 | 1014.0 |
| 20260510072237 | 17 | 46 | 9.7 | 17.7 | 0.00 | 0.00 | 0.00 | 63 | 1015.0 |
| 20260510071737 | 18 | 43 | 9.7 | 12.9 | 0.00 | 0.00 | 0.00 | 62 | 1015.0 |
| 20260510071237 | 18 | 45 | 8.0 | 9.7 | 0.00 | 0.00 | 0.00 | 62 | 1014.0 |
| 20260510070737 | 18 | 42 | 8.0 | 11.3 | 0.00 | 0.00 | 0.00 | 61 | 1014.0 |
| 20260510070237 | 18 | 43 | 6.4 | 8.0 | 0.00 | 0.00 | 0.00 | 61 | 1014.0 |
| 20260510065737 | 18 | 45 | 8.0 | 9.7 | 0.00 | 0.00 | 0.00 | 61 | 1014.0 |
| 20260510065237 | 18 | 42 | 6.4 | 8.0 | 0.00 | 0.00 | 0.00 | 60 | 1014.0 |
| 20260510064739 | 18 | 45 | 6.4 | 8.0 | 0.00 | 0.00 | 0.00 | 60 | 1014.0 |
| 20260510064237 | 18 | 46 | 6.4 | 8.0 | 0.00 | 0.00 | 0.00 | 60 | 1014.0 |
| 20260510063737 | 19 | 51 | 6.4 | 8.0 | 0.00 | 0.00 | 0.00 | 59 | 1014.0 |
| 20260510063237 | 19 | 53 | 8.0 | 11.3 | 0.00 | 0.00 | 0.00 | 59 | 1014.0 |
| 20260510062737 | 19 | 57 | 11.3 | 14.5 | 0.00 | 0.00 | 0.00 | 58 | 1014.0 |
| 20260510062237 | 19 | 62 | 9.7 | 12.9 | 0.00 | 0.00 | 0.00 | 58 | 1014.0 |
| 20260510061737 | 19 | 49 | 9.7 | 12.9 | 0.00 | 0.00 | 0.00 | 58 | 1014.0 |
| 20260510061238 | 19 | 60 | 11.3 | 14.5 | 0.00 | 0.00 | 0.00 | 58 | 1014.0 |
| 20260510060737 | 19 | 55 | 9.7 | 14.5 | 0.00 | 0.00 | 0.00 | 58 | 1014.0 |
| 20260510060237 | 19 | 50 | 9.7 | 14.5 | 0.00 | 0.00 | 0.00 | 58 | 1014.0 |
| 20260510055737 | 19 | 54 | 12.9 | 14.5 | 0.00 | 0.00 | 0.00 | 59 | 1013.0 |
| 20260510055237 | 19 | 46 | 9.7 | 14.5 | 0.00 | 0.00 | 0.00 | 58 | 1013.0 |
| 20260510054738 | 19 | 45 | 11.3 | 16.1 | 0.00 | 0.00 | 0.00 | 58 | 1013.0 |
| 20260510054237 | 20 | 45 | 11.3 | 14.5 | 0.00 | 0.00 | 0.00 | 58 | 1013.0 |
| 20260510053737 | 20 | 45 | 9.7 | 12.9 | 0.00 | 0.00 | 0.00 | 58 | 1013.0 |
| 20260510053237 | 20 | 43 | 9.7 | 12.9 | 0.00 | 0.00 | 0.00 | 57 | 1013.0 |
| 20260510052737 | 20 | 43 | 11.3 | 14.5 | 0.00 | 0.00 | 0.00 | 57 | 1013.0 |
| 20260510052238 | 20 | 46 | 8.0 | 9.7 | 0.00 | 0.00 | 0.00 | 58 | 1013.0 |
| 20260510051737 | 20 | 43 | 11.3 | 14.5 | 0.00 | 0.00 | 0.00 | 58 | 1013.0 |
| 20260510051237 | 20 | 40 | 9.7 | 9.7 | 0.00 | 0.00 | 0.00 | 57 | 1013.0 |
| 20260510050737 | 20 | 37 | 9.7 | 11.3 | 0.00 | 0.00 | 0.00 | 57 | 1013.0 |
| 20260510050237 | 20 | 43 | 9.7 | 14.5 | 0.00 | 0.00 | 0.00 | 57 | 1013.0 |
| 20260510045737 | 20 | 44 | 8.0 | 11.3 | 0.00 | 0.00 | 0.03 | 58 | 1013.0 |
| 20260510045237 | 20 | 43 | 8.0 | 14.5 | 0.00 | 0.00 | 0.03 | 57 | 1013.0 |
| 20260510044737 | 20 | 36 | 6.4 | 8.0 | 0.00 | 0.00 | 0.03 | 57 | 1013.0 |
| 20260510044237 | 20 | 32 | 6.4 | 14.5 | 0.00 | 0.00 | 0.03 | 56 | 1013.0 |
| 20260510043737 | 20 | 40 | 6.4 | 12.9 | 0.00 | 0.00 | 0.03 | 57 | 1013.0 |
| 20260510043237 | 20 | 50 | 6.4 | 14.5 | 0.00 | 0.00 | 0.03 | 57 | 1012.0 |
| 20260510042737 | 20 | 40 | 3.2 | 6.4 | 0.00 | 0.00 | 0.03 | 57 | 1012.0 |
| 20260510042237 | 20 | 49 | 4.8 | 9.7 | 0.00 | 0.00 | 0.03 | 56 | 1012.0 |
| 20260510041738 | 21 | 46 | 3.2 | 6.4 | 0.00 | 0.00 | 0.03 | 57 | 1012.0 |
| 20260510041237 | 21 | 42 | 4.8 | 6.4 | 0.00 | 0.00 | 0.03 | 55 | 1012.0 |
| 20260510040737 | 21 | 38 | 4.8 | 9.7 | 0.00 | 0.00 | 0.03 | 56 | 1012.0 |
| 20260510040237 | 21 | 35 | 3.2 | 4.8 | 0.00 | 0.00 | 0.03 | 55 | 1012.0 |
| 20260510035737 | 21 | 44 | 4.8 | 6.4 | 0.00 | 0.00 | 0.03 | 54 | 1012.0 |
| 20260510035238 | 21 | 39 | 4.8 | 6.4 | 0.00 | 0.00 | 0.03 | 53 | 1013.0 |
| 20260510034737 | 21 | 26 | 3.2 | 8.0 | 0.00 | 0.00 | 0.03 | 53 | 1012.0 |
| 20260510034237 | 21 | 313 | 1.6 | 3.2 | 0.00 | 0.00 | 0.03 | 54 | 1012.0 |
| 20260510033737 | 21 | 315 | 1.6 | 3.2 | 0.00 | 0.00 | 0.03 | 56 | 1012.0 |
| 20260510033237 | 21 | 314 | 1.6 | 3.2 | 0.00 | 0.00 | 0.03 | 54 | 1012.0 |
| 20260510032737 | 21 | 313 | 1.6 | 3.2 | 0.00 | 0.00 | 0.03 | 53 | 1012.0 |
| 20260510032237 | 21 | 313 | 1.6 | 3.2 | 0.00 | 0.00 | 0.03 | 53 | 1012.0 |
| 20260510031737 | 21 | 315 | 3.2 | 3.2 | 0.00 | 0.00 | 0.03 | 53 | 1012.0 |
| 20260510031237 | 21 | 315 | 1.6 | 3.2 | 0.00 | 0.00 | 0.03 | 51 | 1012.0 |
| 20260510030737 | 21 | 314 | 3.2 | 4.8 | 0.00 | 0.00 | 0.03 | 51 | 1012.0 |
| 20260510030238 | 21 | 313 | 3.2 | 4.8 | 0.00 | 0.00 | 0.03 | 50 | 1012.0 |
| 20260510025737 | 21 | 314 | 4.8 | 6.4 | 0.00 | 0.00 | 0.08 | 49 | 1012.0 |
| 20260510025237 | 21 | 312 | 6.4 | 8.0 | 0.00 | 0.00 | 0.08 | 52 | 1012.0 |
| 20260510024737 | 21 | 312 | 4.8 | 6.4 | 0.00 | 0.00 | 0.08 | 52 | 1012.0 |
| 20260510024238 | 21 | 311 | 4.8 | 8.0 | 0.00 | 0.00 | 0.08 | 52 | 1012.0 |
| 20260510023737 | 21 | 305 | 4.8 | 6.4 | 0.00 | 0.00 | 0.08 | 52 | 1012.0 |
| 20260510023237 | 22 | 309 | 4.8 | 6.4 | 0.00 | 0.00 | 0.08 | 53 | 1011.0 |
| 20260510022738 | 22 | 307 | 3.2 | 6.4 | 0.00 | 0.00 | 0.08 | 53 | 1011.0 |
| 20260510022237 | 22 | 311 | 4.8 | 6.4 | 0.00 | 0.00 | 0.03 | 50 | 1011.0 |
| 20260510021737 | 22 | 312 | 4.8 | 6.4 | 0.00 | 0.00 | 0.03 | 50 | 1011.0 |
| 20260510021237 | 22 | 313 | 6.4 | 8.0 | 0.00 | 0.00 | 0.03 | 49 | 1011.0 |
| 20260510020737 | 22 | 313 | 4.8 | 8.0 | 0.00 | 0.00 | 0.03 | 46 | 1011.0 |
| 20260510020237 | 22 | 313 | 4.8 | 8.0 | 0.00 | 0.00 | 0.03 | 43 | 1011.0 |
| 20260510015737 | 22 | 311 | 6.4 | 8.0 | 0.00 | 0.00 | 0.03 | 45 | 1012.0 |
| 20260510015237 | 23 | 311 | 4.8 | 8.0 | 0.05 | 0.00 | 0.03 | 48 | 1012.0 |
| 20260510014737 | 23 | 308 | 6.4 | 8.0 | 0.13 | 0.00 | 0.00 | 44 | 1012.0 |
| 20260510014237 | 24 | 311 | 6.4 | 11.3 | 0.00 | 0.00 | 0.00 | 42 | 1012.0 |
| 20260510013737 | 25 | 308 | 8.0 | 14.5 | 0.00 | 0.00 | 0.00 | 38 | 1012.0 |
| 20260510013237 | 25 | 303 | 6.4 | 9.7 | 0.00 | 0.00 | 0.00 | 33 | 1012.0 |
| 20260510012737 | 25 | 304 | 6.4 | 9.7 | 0.00 | 0.00 | 0.00 | 35 | 1012.0 |
| 20260510012238 | 26 | 307 | 6.4 | 11.3 | 0.00 | 0.00 | 0.00 | 34 | 1011.0 |
| 20260510011737 | 26 | 303 | 6.4 | 9.7 | 0.00 | 0.00 | 0.00 | 32 | 1011.0 |
| 20260510011237 | 26 | 307 | 6.4 | 11.3 | 0.00 | 0.00 | 0.00 | 30 | 1011.0 |
| 20260510010738 | 26 | 305 | 6.4 | 11.3 | 0.00 | 0.00 | 0.00 | 30 | 1011.0 |
| 20260510010237 | 26 | 304 | 6.4 | 9.7 | 0.00 | 0.00 | 0.00 | 30 | 1010.0 |
| 20260510005738 | 27 | 306 | 8.0 | 9.7 | 0.00 | 0.00 | 0.00 | 31 | 1010.0 |
| 20260510005237 | 27 | 309 | 4.8 | 9.7 | 0.00 | 0.00 | 0.00 | 29 | 1010.0 |
| 20260510004737 | 27 | 305 | 6.4 | 8.0 | 0.00 | 0.00 | 0.00 | 30 | 1009.0 |
| 20260510004237 | 27 | 305 | 6.4 | 9.7 | 0.00 | 0.00 | 0.00 | 29 | 1009.0 |
| 20260510003737 | 27 | 308 | 4.8 | 9.7 | 0.00 | 0.00 | 0.00 | 29 | 1008.0 |
| 20260510003237 | 27 | 310 | 6.4 | 9.7 | 0.00 | 0.00 | 0.00 | 29 | 1008.0 |
| 20260510002737 | 27 | 304 | 6.4 | 8.0 | 0.00 | 0.00 | 0.00 | 29 | 1008.0 |
| 20260510002237 | 27 | 307 | 4.8 | 9.7 | 0.00 | 0.00 | 0.00 | 27 | 1008.0 |
| 20260510001737 | 28 | 306 | 4.8 | 8.0 | 0.00 | 0.00 | 0.00 | 27 | 1008.0 |
| 20260510001238 | 28 | 305 | 6.4 | 8.0 | 0.00 | 0.00 | 0.00 | 28 | 1008.0 |
| 20260510000737 | 28 | 307 | 6.4 | 9.7 | 0.00 | 0.00 | 0.00 | 27 | 1008.0 |
| 20260510000238 | 29 | 302 | 6.4 | 9.7 | 0.00 | 0.00 | 0.00 | 27 | 1008.0 |
| 20260509235737 | 30 | 303 | 6.4 | 9.7 | 0.00 | 0.00 | 0.00 | 25 | 1008.0 |
| 20260509235237 | 30 | 306 | 6.4 | 9.7 | 0.00 | 0.00 | 0.00 | 26 | 1008.0 |
| 20260509234739 | 30 | 303 | 6.4 | 9.7 | 0.00 | 0.00 | 0.00 | 27 | 1008.0 |
| 20260509234237 | 30 | 305 | 6.4 | 9.7 | 0.00 | 0.00 | 0.00 | 26 | 1008.0 |
| 20260509233737 | 30 | 308 | 6.4 | 8.0 | 0.00 | 0.00 | 0.00 | 26 | 1008.0 |
| 20260509233237 | 30 | 303 | 6.4 | 9.7 | 0.00 | 0.00 | 0.00 | 24 | 1008.0 |
| 20260509232737 | 30 | 306 | 6.4 | 9.7 | 0.00 | 0.00 | 0.00 | 26 | 1008.0 |
| 20260509232238 | 30 | 306 | 6.4 | 9.7 | 0.00 | 0.00 | 0.00 | 25 | 1008.0 |
| 20260509231737 | 31 | 307 | 6.4 | 11.3 | 0.00 | 0.00 | 0.00 | 25 | 1008.0 |
| 20260509231237 | 31 | 317 | 6.4 | 14.5 | 0.00 | 0.00 | 0.00 | 25 | 1008.0 |
| 20260509230740 | 31 | 311 | 6.4 | 8.0 | 0.00 | 0.00 | 0.00 | 25 | 1008.0 |
| 20260509230237 | 31 | 314 | 6.4 | 9.7 | 0.00 | 0.00 | 0.00 | 25 | 1008.0 |
| 20260509225737 | 31 | 314 | 9.7 | 14.5 | 0.00 | 0.00 | 0.00 | 25 | 1008.0 |
| 20260509225237 | 30 | 314 | 9.7 | 14.5 | 0.00 | 0.00 | 0.00 | 24 | 1008.0 |
| 20260509224738 | 30 | 305 | 4.8 | 8.0 | 0.00 | 0.00 | 0.00 | 24 | 1008.0 |
| 20260509224238 | 30 | 313 | 4.8 | 8.0 | 0.00 | 0.00 | 0.00 | 23 | 1008.0 |
| 20260509223737 | 30 | 314 | 6.4 | 8.0 | 0.00 | 0.00 | 0.00 | 23 | 1008.0 |
| 20260509223237 | 30 | 315 | 4.8 | 9.7 | 0.00 | 0.00 | 0.00 | 26 | 1008.0 |
| 20260509222738 | 30 | 319 | 6.4 | 17.7 | 0.00 | 0.00 | 0.00 | 25 | 1008.0 |
| 20260509222237 | 31 | 322 | 6.4 | 14.5 | 0.00 | 0.00 | 0.00 | 23 | 1008.0 |
| 20260509221737 | 30 | 309 | 4.8 | 6.4 | 0.00 | 0.00 | 0.00 | 27 | 1008.0 |
| 20260509221238 | 30 | 301 | 6.4 | 11.3 | 0.00 | 0.00 | 0.00 | 25 | 1008.0 |
| 20260509220738 | 31 | 310 | 3.2 | 6.4 | 0.00 | 0.00 | 0.00 | 26 | 1008.0 |
| 20260509220237 | 31 | 310 | 4.8 | 6.4 | 0.00 | 0.00 | 0.00 | 25 | 1008.0 |
| 20260509215738 | 31 | 313 | 4.8 | 9.7 | 0.00 | 0.00 | 0.00 | 25 | 1008.0 |
| 20260509215237 | 31 | 310 | 8.0 | 9.7 | 0.00 | 0.00 | 0.00 | 23 | 1008.0 |
| 20260509214737 | 31 | 318 | 3.2 | 4.8 | 0.00 | 0.00 | 0.00 | 24 | 1008.0 |
| 20260509214237 | 30 | 315 | 4.8 | 6.4 | 0.00 | 0.00 | 0.00 | 26 | 1008.0 |
| 20260509213738 | 31 | 317 | 6.4 | 9.7 | 0.00 | 0.00 | 0.00 | 24 | 1008.0 |
| 20260509213237 | 31 | 309 | 8.0 | 9.7 | 0.00 | 0.00 | 0.00 | 26 | 1008.0 |
| 20260509212737 | 31 | 303 | 6.4 | 8.0 | 0.00 | 0.00 | 0.00 | 26 | 1008.0 |
| 20260509212238 | 31 | 303 | 6.4 | 9.7 | 0.00 | 0.00 | 0.00 | 25 | 1008.0 |
| 20260509211737 | 31 | 307 | 6.4 | 9.7 | 0.00 | 0.00 | 0.00 | 26 | 1008.0 |
| 20260509211237 | 31 | 296 | 6.4 | 9.7 | 0.00 | 0.00 | 0.00 | 27 | 1008.0 |
| 20260509210737 | 31 | 289 | 6.4 | 8.0 | 0.00 | 0.00 | 0.00 | 24 | 1009.0 |
| 20260509210237 | 31 | 296 | 6.4 | 8.0 | 0.00 | 0.00 | 0.00 | 25 | 1009.0 |
| 20260509205737 | 31 | 296 | 6.4 | 8.0 | 0.00 | 0.00 | 0.00 | 26 | 1009.0 |
| 20260509205237 | 31 | 306 | 6.4 | 12.9 | 0.00 | 0.00 | 0.00 | 23 | 1009.0 |
| 20260509204737 | 31 | 306 | 6.4 | 9.7 | 0.00 | 0.00 | 0.00 | 26 | 1009.0 |
| 20260509204237 | 31 | 307 | 6.4 | 9.7 | 0.00 | 0.00 | 0.00 | 23 | 1009.0 |
| 20260509203738 | 30 | 309 | 6.4 | 8.0 | 0.00 | 0.00 | 0.00 | 25 | 1009.0 |
| 20260509203237 | 30 | 310 | 6.4 | 9.7 | 0.00 | 0.00 | 0.00 | 25 | 1009.0 |
| 20260509202737 | 30 | 310 | 6.4 | 8.0 | 0.00 | 0.00 | 0.00 | 27 | 1009.0 |
| 20260509202237 | 29 | 308 | 6.4 | 8.0 | 0.00 | 0.00 | 0.00 | 27 | 1009.0 |
| 20260509201737 | 29 | 330 | 6.4 | 11.3 | 0.00 | 0.00 | 0.00 | 27 | 1009.0 |
| 20260509201238 | 30 | 308 | 6.4 | 11.3 | 0.00 | 0.00 | 0.00 | 25 | 1009.0 |
| 20260509200738 | 30 | 310 | 6.4 | 8.0 | 0.00 | 0.00 | 0.00 | 27 | 1009.0 |
| 20260509200237 | 30 | 312 | 4.8 | 6.4 | 0.00 | 0.00 | 0.00 | 26 | 1009.0 |
| 20260509195737 | 29 | 305 | 3.2 | 9.7 | 0.00 | 0.00 | 0.00 | 28 | 1009.0 |
| 20260509195237 | 30 | 308 | 3.2 | 4.8 | 0.00 | 0.00 | 0.00 | 26 | 1009.0 |
| 20260509194737 | 29 | 318 | 3.2 | 4.8 | 0.00 | 0.00 | 0.00 | 26 | 1009.0 |
| 20260509194237 | 29 | 310 | 4.8 | 6.4 | 0.00 | 0.00 | 0.00 | 28 | 1010.0 |
| 20260509193737 | 29 | 319 | 6.4 | 17.7 | 0.00 | 0.00 | 0.00 | 28 | 1010.0 |
| 20260509193237 | 30 | 306 | 8.0 | 12.9 | 0.00 | 0.00 | 0.00 | 27 | 1010.0 |
| 20260509192737 | 30 | 314 | 6.4 | 8.0 | 0.00 | 0.00 | 0.00 | 27 | 1010.0 |
| 20260509192237 | 30 | 314 | 4.8 | 6.4 | 0.00 | 0.00 | 0.00 | 26 | 1010.0 |
| 20260509191738 | 30 | 312 | 6.4 | 9.7 | 0.00 | 0.00 | 0.00 | 29 | 1010.0 |
| 20260509191237 | 30 | 309 | 6.4 | 11.3 | 0.00 | 0.00 | 0.00 | 29 | 1010.0 |
| 20260509190737 | 29 | 308 | 6.4 | 11.3 | 0.00 | 0.00 | 0.00 | 28 | 1010.0 |
| 20260509190237 | 28 | 313 | 4.8 | 9.7 | 0.00 | 0.00 | 0.00 | 30 | 1010.0 |
| 20260509185738 | 28 | 320 | 8.0 | 33.8 | 0.00 | 0.00 | 0.00 | 27 | 1010.0 |
| 20260509185237 | 28 | 322 | 8.0 | 32.2 | 0.00 | 0.00 | 0.00 | 29 | 1010.0 |
| 20260509184737 | 28 | 303 | 8.0 | 11.3 | 0.00 | 0.00 | 0.00 | 28 | 1010.0 |
| 20260509184237 | 28 | 323 | 9.7 | 14.5 | 0.00 | 0.00 | 0.00 | 28 | 1010.0 |
| 20260509183738 | 28 | 6 | 14.5 | 22.5 | 0.00 | 0.00 | 0.00 | 28 | 1010.0 |
| 20260509183238 | 28 | 18 | 20.9 | 30.6 | 0.00 | 0.00 | 0.00 | 31 | 1010.0 |
| 20260509182737 | 28 | 8 | 11.3 | 24.1 | 0.00 | 0.00 | 0.00 | 28 | 1010.0 |
| 20260509182237 | 28 | 13 | 17.7 | 38.6 | 0.00 | 0.00 | 0.00 | 30 | 1010.0 |
| 20260509181737 | 28 | 12 | 19.3 | 40.2 | 0.00 | 0.00 | 0.00 | 29 | 1010.0 |
| 20260509181237 | 28 | 10 | 14.5 | 32.2 | 0.00 | 0.00 | 0.00 | 28 | 1011.0 |
| 20260509180737 | 28 | 22 | 17.7 | 30.6 | 0.00 | 0.00 | 0.00 | 28 | 1011.0 |
| 20260509180238 | 28 | 11 | 12.9 | 24.1 | 0.00 | 0.00 | 0.00 | 28 | 1011.0 |
| 20260509175737 | 27 | 348 | 14.5 | 25.7 | 0.00 | 0.00 | 0.00 | 28 | 1011.0 |
| 20260509175237 | 27 | 302 | 11.3 | 14.5 | 0.00 | 0.00 | 0.00 | 29 | 1011.0 |
| 20260509174737 | 27 | 318 | 14.5 | 20.9 | 0.00 | 0.00 | 0.00 | 29 | 1011.0 |
| 20260509174237 | 27 | 315 | 9.7 | 20.9 | 0.00 | 0.00 | 0.00 | 30 | 1011.0 |
| 20260509173739 | 27 | 304 | 8.0 | 16.1 | 0.00 | 0.00 | 0.00 | 30 | 1011.0 |
| 20260509173237 | 27 | 301 | 9.7 | 17.7 | 0.00 | 0.00 | 0.00 | 31 | 1011.0 |
| 20260509172737 | 27 | 312 | 11.3 | 35.4 | 0.00 | 0.00 | 0.00 | 32 | 1011.0 |
| 20260509172238 | 27 | 311 | 9.7 | 19.3 | 0.00 | 0.00 | 0.00 | 33 | 1011.0 |
| 20260509171737 | 27 | 309 | 6.4 | 12.9 | 0.00 | 0.00 | 0.00 | 33 | 1011.0 |
| 20260509171237 | 27 | 304 | 8.0 | 11.3 | 0.00 | 0.00 | 0.00 | 34 | 1011.0 |
| 20260509170737 | 26 | 307 | 6.4 | 9.7 | 0.00 | 0.00 | 0.00 | 33 | 1012.0 |
| 20260509170238 | 27 | 299 | 9.7 | 12.9 | 0.00 | 0.00 | 0.00 | 34 | 1012.0 |
| 20260509165745 | 27 | 299 | 6.4 | 11.3 | 0.00 | 0.00 | 0.00 | 34 | 1012.0 |
| 20260509165237 | 27 | 308 | 6.4 | 8.0 | 0.00 | 0.00 | 0.00 | 37 | 1012.0 |
| 20260509164737 | 26 | 309 | 6.4 | 8.0 | 0.00 | 0.00 | 0.00 | 35 | 1012.0 |
| 20260509164238 | 26 | 311 | 6.4 | 9.7 | 0.00 | 0.00 | 0.00 | 35 | 1012.0 |
| 20260509163737 | 26 | 295 | 8.0 | 12.9 | 0.00 | 0.00 | 0.00 | 34 | 1012.0 |
| 20260509163239 | 26 | 305 | 8.0 | 9.7 | 0.00 | 0.00 | 0.00 | 35 | 1012.0 |
| 20260509162737 | 26 | 307 | 6.4 | 9.7 | 0.00 | 0.00 | 0.00 | 34 | 1011.0 |
| 20260509162237 | 26 | 299 | 9.7 | 14.5 | 0.00 | 0.00 | 0.00 | 36 | 1011.0 |
| 20260509161737 | 26 | 305 | 8.0 | 11.3 | 0.00 | 0.00 | 0.00 | 37 | 1011.0 |
| 20260509161237 | 25 | 311 | 6.4 | 8.0 | 0.00 | 0.00 | 0.00 | 41 | 1012.0 |
| 20260509160737 | 25 | 312 | 6.4 | 9.7 | 0.00 | 0.00 | 0.00 | 43 | 1012.0 |
| 20260509160238 | 25 | 311 | 8.0 | 11.3 | 0.00 | 0.00 | 0.00 | 42 | 1012.0 |
| 20260509155737 | 25 | 310 | 8.0 | 11.3 | 0.00 | 0.00 | 0.00 | 43 | 1012.0 |
| 20260509155238 | 25 | 305 | 9.7 | 12.9 | 0.00 | 0.00 | 0.00 | 41 | 1012.0 |
| 20260509154737 | 24 | 310 | 6.4 | 8.0 | 0.00 | 0.00 | 0.00 | 44 | 1012.0 |
| 20260509154238 | 24 | 312 | 6.4 | 9.7 | 0.00 | 0.00 | 0.00 | 45 | 1012.0 |
| 20260509153737 | 24 | 312 | 6.4 | 9.7 | 0.00 | 0.00 | 0.00 | 46 | 1012.0 |
| 20260509153237 | 24 | 308 | 6.4 | 8.0 | 0.00 | 0.00 | 0.00 | 43 | 1012.0 |
| 20260509152737 | 23 | 312 | 6.4 | 6.4 | 0.00 | 0.00 | 0.00 | 44 | 1012.0 |
| 20260509152238 | 23 | 308 | 6.4 | 9.7 | 0.00 | 0.00 | 0.00 | 43 | 1012.0 |
| 20260509151739 | 24 | 308 | 6.4 | 12.9 | 0.00 | 0.00 | 0.00 | 43 | 1012.0 |
| 20260509151237 | 23 | 309 | 8.0 | 9.7 | 0.00 | 0.00 | 0.00 | 45 | 1012.0 |
| 20260509150738 | 23 | 311 | 6.4 | 8.0 | 0.00 | 0.00 | 0.00 | 45 | 1012.0 |
| 20260509150237 | 23 | 308 | 6.4 | 8.0 | 0.00 | 0.00 | 0.00 | 47 | 1011.0 |
| 20260509145739 | 23 | 300 | 8.0 | 12.9 | 0.00 | 0.00 | 0.00 | 47 | 1011.0 |
| 20260509145237 | 22 | 303 | 8.0 | 9.7 | 0.00 | 0.00 | 0.00 | 48 | 1011.0 |
| 20260509144737 | 22 | 312 | 6.4 | 9.7 | 0.00 | 0.00 | 0.00 | 52 | 1011.0 |
| 20260509144237 | 22 | 309 | 6.4 | 8.0 | 0.00 | 0.00 | 0.00 | 52 | 1011.0 |